Date,TemperatureHighF,TemperatureAvgF,TemperatureLowF,DewpointHighF,DewpointAvgF,DewpointLowF,HumidityHigh,HumidityAvg,HumidityLow,PressureMaxIn,PressureMinIn,WindSpeedMaxMPH,WindSpeedAvgMPH,GustSpeedMaxMPH,PrecipitationSumIn
2012-1-1,50,45,41,40,35,32,77,67,61,30.22,30.06,5,1,5,0.00
2012-1-2,48,43,36,46,38,31,93,84,68,30.25,29.89,16,2,16,0.52
2012-1-3,52,47,43,48,44,40,94,91,88,30.29,30.16,8,1,8,0.06
2012-1-4,51,48,41,49,45,40,95,91,78,30.17,30.03,9,2,9,0.93
2012-1-5,47,42,36,46,40,33,94,90,87,30.37,30.17,12,2,12,0.14
2012-1-6,41,38,36,39,36,33,94,93,90,30.35,30.28,5,1,5,0.07
2012-1-7,44,41,38,42,39,36,95,93,90,30.45,30.33,10,1,10,0.01
2012-1-8,51,45,39,45,41,37,93,88,74,30.38,30.22,8,2,9,0.00
2012-1-9,49,46,42,45,42,40,94,88,83,30.28,30.21,11,2,11,0.24
2012-1-10,43,39,36,40,36,31,94,89,79,30.52,30.28,8,2,8,0.04
2012-1-11,43,36,35,34,32,28,88,83,77,30.51,29.91,10,3,10,0.55
2012-1-12,43,37,32,38,33,29,93,85,78,30.37,30.27,8,2,8,0.00
2012-1-13,42,35,30,38,33,28,95,91,85,30.31,30.03,6,1,6,0.00
2012-1-14,40,37,33,38,34,30,95,91,84,30.04,29.88,21,4,21,1.52
2012-1-15,35,33,30,33,31,28,94,93,91,30.05,29.92,8,2,9,0.00
2012-1-16,36,33,30,33,31,28,95,94,92,30.07,29.89,13,4,13,0.00
2012-1-17,40,33,30,36,31,28,96,93,86,29.92,29.75,15,3,15,0.00
2012-1-18,32,30,28,30,29,26,95,94,90,29.91,29.55,5,0,5,0.00
2012-1-19,31,30,28,29,28,26,95,94,93,29.73,29.50,0,0,0,0.00
2012-1-20,44,36,31,43,34,29,97,95,94,29.71,28.99,6,1,6,0.00
2012-1-21,46,41,37,45,38,34,97,92,87,29.85,28.96,20,6,20,0.00
2012-1-22,43,38,33,42,36,30,95,92,87,29.85,29.37,16,3,16,0.00
2012-1-23,38,36,33,36,35,32,96,94,94,29.91,29.76,11,3,11,0.00
2012-2-3,66,50,38,33,30,26,62,47,34,30.13,30.05,4,1,4,0.00
2012-2-4,52,42,34,36,30,24,75,62,51,30.17,30.10,4,1,4,0.00
2012-2-5,51,43,34,39,33,26,79,69,57,30.22,30.11,6,2,6,0.00
2012-2-6,54,47,37,39,33,27,80,60,42,30.10,29.89,13,3,13,0.00
2012-2-7,58,49,40,38,32,28,72,53,42,30.00,29.84,5,2,5,0.00
2012-2-8,48,45,41,45,42,37,91,88,74,30.25,30.01,4,1,4,0.22
2012-2-9,50,47,43,47,44,41,93,92,91,30.26,30.01,3,1,3,0.19
2012-2-10,52,47,44,50,45,42,95,93,92,30.04,29.90,12,2,12,0.09
2012-2-11,48,45,42,44,42,40,93,90,83,30.14,30.03,11,3,11,0.01
2012-2-12,48,44,41,43,40,39,93,89,80,30.11,29.88,8,1,8,0.04
2012-2-13,48,43,42,45,41,40,94,92,88,30.05,29.91,6,1,6,0.25
2012-2-14,45,40,35,42,38,33,95,93,88,30.18,29.89,10,2,10,0.24
2012-2-15,44,38,34,42,36,31,96,93,88,30.38,30.17,10,2,10,0.00
2012-2-16,44,42,36,43,40,34,95,94,93,30.29,30.19,9,2,9,0.07
2012-2-17,49,44,41,48,42,40,96,95,93,30.24,29.81,17,2,17,0.58
2012-2-18,44,41,38,43,39,36,96,94,92,30.04,29.89,20,7,20,0.03
2012-2-19,45,40,34,41,36,31,93,87,78,30.07,29.89,17,3,17,0.00
2012-2-20,46,41,33,45,39,30,95,92,87,29.99,29.84,12,2,12,0.09
2012-2-21,51,48,46,49,47,45,96,94,91,30.07,29.96,22,7,22,0.08
2012-2-22,51,46,36,47,42,33,94,84,71,30.29,29.91,22,6,22,0.02
2012-2-23,49,42,36,42,37,33,91,84,73,30.37,30.26,11,2,11,0.00
2012-2-24,44,42,40,41,39,36,93,89,84,30.26,29.57,13,3,13,0.44
2012-2-25,46,40,36,40,36,32,94,84,72,30.15,29.57,27,8,27,0.02
2012-2-26,42,38,33,37,32,27,88,81,73,30.16,30.09,12,3,12,0.00
2012-2-27,41,36,31,32,28,25,83,74,63,30.17,29.94,13,3,13,0.00
2012-2-28,42,36,31,37,32,27,92,84,71,29.94,29.42,13,2,13,0.19
2012-2-29,40,37,34,38,35,31,94,92,87,29.76,29.48,19,5,19,0.31
2012-3-1,43,38,32,40,35,30,94,90,84,30.31,29.75,12,2,12,0.00
2012-3-2,44,41,36,41,39,34,92,90,85,30.38,30.30,13,4,13,0.03
2012-3-3,55,48,44,48,44,41,93,86,75,30.35,30.28,20,6,20,0.00
2012-3-4,51,47,45,45,43,41,91,84,76,30.32,29.98,12,4,12,0.00
2012-3-5,46,42,34,42,36,29,93,79,64,29.96,29.69,20,7,20,0.53
2012-3-6,44,36,30,39,31,26,90,80,67,30.33,29.85,10,2,10,0.11
2012-3-7,46,38,28,39,30,25,91,74,52,30.46,30.32,6,2,6,0.00
2012-3-8,57,45,36,44,38,30,86,75,61,30.35,30.13,13,3,13,0.00
2012-3-9,49,45,41,44,41,37,91,86,80,30.21,29.94,9,2,9,0.25
2012-3-10,46,44,42,44,42,40,94,92,91,29.95,29.61,10,2,10,0.54
2012-3-11,44,40,38,42,37,34,95,91,84,29.76,29.57,13,3,13,0.43
2012-3-12,46,42,36,41,37,34,92,83,72,29.65,29.31,18,4,18,0.61
2012-3-13,41,36,34,39,34,32,94,93,87,29.85,29.35,17,4,17,0.29
2012-3-14,45,39,34,43,37,32,95,93,89,29.85,29.65,17,2,17,0.63
2012-3-15,52,46,43,50,45,41,95,94,92,29.66,29.45,16,4,16,1.23
2012-3-16,48,43,40,46,41,38,95,93,87,29.69,29.33,15,3,15,0.42
2012-3-17,48,41,36,44,38,34,95,89,79,29.64,29.31,13,2,13,0.47
2012-3-18,41,37,32,39,35,30,94,92,90,29.83,29.59,10,1,10,0.04
2012-3-19,45,38,30,40,34,28,95,89,81,29.88,29.63,12,2,12,0.07
2012-3-20,46,41,36,42,38,34,94,90,84,29.95,29.48,20,6,20,0.28
2012-3-21,47,40,34,42,36,32,95,84,64,30.00,29.78,10,2,10,0.01
2012-3-22,48,41,36,44,36,32,93,83,68,30.02,29.79,9,2,9,0.14
2012-3-23,52,42,31,44,35,28,93,78,55,30.03,29.93,8,2,8,0.00
2012-3-24,54,46,40,44,38,34,83,73,59,30.02,29.86,13,3,13,0.00
2012-3-25,53,46,39,45,39,33,86,76,65,29.86,29.69,21,2,21,0.00
2012-3-26,53,47,42,44,40,35,89,79,57,29.81,29.70,13,3,14,0.03
2012-3-27,56,48,42,47,43,36,91,84,70,29.71,29.47,12,1,12,0.16
2012-3-28,52,47,44,45,42,39,89,82,70,29.77,29.53,20,6,20,0.17
2012-3-29,47,45,42,45,42,41,94,92,82,29.64,29.41,14,3,14,1.84
2012-3-30,50,45,40,48,42,37,95,91,83,29.74,29.44,20,4,20,0.30
2012-3-31,45,41,38,43,39,36,95,93,91,29.69,29.38,14,2,14,0.45
2012-4-1,49,44,40,45,41,37,95,88,80,30.17,29.47,17,5,17,0.08
2012-4-2,61,49,38,46,42,35,92,76,51,30.22,29.86,10,2,10,0.00
2012-4-3,48,45,36,44,40,33,90,85,79,29.97,29.72,17,3,17,0.23
2012-4-4,51,41,36,46,38,33,94,87,67,30.08,29.93,6,2,6,0.00
2012-4-5,51,43,37,45,39,34,92,85,71,30.15,30.08,8,2,8,0.18
2012-4-6,52,43,36,46,37,31,93,81,60,30.28,30.14,9,2,9,0.00
2012-4-7,55,45,33,44,38,29,92,76,59,30.28,30.12,10,2,10,0.00
2012-4-8,54,47,43,39,37,34,72,68,53,30.15,29.96,6,1,6,0.00
2012-4-9,62,54,41,46,40,34,80,60,48,29.98,29.81,9,2,9,0.00
2012-4-10,66,55,48,51,44,36,82,69,53,29.81,29.69,13,3,13,0.00
2012-4-11,54,50,47,50,46,44,91,86,74,29.78,29.65,10,2,10,0.14
2012-4-12,58,49,42,51,44,38,94,82,66,29.81,29.68,18,3,18,0.00
2012-4-13,54,48,41,48,42,36,91,80,64,29.89,29.79,13,3,13,0.00
2012-4-14,59,48,37,49,42,34,91,79,64,30.13,29.89,11,3,11,0.00
2012-4-15,59,51,45,47,43,41,84,75,58,30.18,29.98,7,2,7,0.00
2012-4-16,56,50,43,51,45,38,93,83,72,30.18,29.85,17,4,17,0.43
2012-4-17,51,44,36,45,40,33,92,86,76,30.20,29.95,5,1,5,0.13
2012-4-18,56,49,44,51,44,39,94,84,69,30.06,29.91,14,3,14,0.16
2012-4-19,56,47,37,50,44,34,94,87,73,30.07,29.97,13,2,13,0.61
2012-4-20,53,48,42,50,46,40,94,90,81,30.24,30.00,14,2,14,0.17
2012-4-21,60,51,41,50,44,38,92,79,64,30.18,29.98,8,2,8,0.00
2012-4-22,66,58,46,52,47,42,85,68,57,29.99,29.85,12,3,12,0.00
2012-4-23,65,57,48,54,49,42,86,75,64,29.90,29.79,13,3,13,0.00
2012-4-24,56,53,49,51,48,45,91,85,79,29.91,29.80,13,2,13,0.01
2012-4-25,62,54,49,59,51,47,92,90,85,29.81,29.60,11,2,11,0.49
2012-4-26,58,50,43,50,45,40,94,85,57,30.02,29.58,18,4,18,0.13
2012-4-27,57,49,42,47,43,39,91,81,64,30.27,30.02,14,4,14,0.04
2012-4-28,62,54,47,52,48,44,91,79,67,30.27,30.17,9,2,9,0.00
2012-4-29,61,55,50,52,49,46,88,80,72,30.18,29.78,9,2,9,0.09
2012-4-30,55,49,44,51,46,41,94,88,79,29.89,29.63,20,6,20,0.39
2012-5-1,56,48,42,47,42,38,89,82,68,29.96,29.89,16,5,16,0.03
2012-5-2,58,49,41,48,41,38,89,75,56,29.99,29.75,10,2,10,0.00
2012-5-3,52,47,44,49,44,41,93,90,78,29.92,29.58,12,2,12,0.81
2012-5-4,56,47,40,48,43,37,92,85,67,30.33,29.92,13,4,13,0.23
2012-5-5,56,47,36,49,42,34,94,83,68,30.48,30.33,8,2,8,0.01
2012-5-6,59,49,38,48,41,36,93,76,56,30.48,30.35,7,2,7,0.00
2012-5-7,67,58,45,52,47,38,84,66,51,30.36,30.08,8,2,8,0.00
2012-5-8,67,54,47,53,46,41,86,75,59,30.14,30.08,11,3,11,0.00
2012-5-9,57,49,44,43,40,36,80,71,54,30.34,30.14,11,2,11,0.00
2012-5-10,57,48,37,43,36,32,85,64,44,30.42,30.31,9,2,9,0.00
2012-5-11,60,51,40,46,39,34,83,65,50,30.32,30.17,12,3,12,0.00
2012-5-12,68,57,46,48,42,36,71,57,41,30.21,30.10,10,3,10,0.00
2012-5-13,68,56,50,48,42,39,68,58,50,30.17,30.04,10,2,10,0.00
2012-5-14,71,61,52,50,45,41,71,56,40,30.05,29.97,12,4,12,0.00
2012-5-15,70,60,50,56,48,41,85,66,48,30.10,30.01,9,3,9,0.00
2012-5-16,69,58,45,51,44,37,79,60,49,30.09,30.01,12,3,12,0.00
2012-5-17,62,53,44,48,43,37,82,69,47,30.06,29.97,10,2,10,0.06
2012-5-18,59,48,45,45,41,38,81,77,55,30.17,30.04,10,2,10,0.00
2012-5-19,65,54,40,51,42,36,88,68,43,30.11,30.01,6,2,7,0.00
2012-5-20,60,55,52,56,49,41,90,79,65,30.02,29.92,6,1,6,0.26
2012-5-21,61,56,51,58,53,48,93,91,89,29.92,29.78,13,2,13,0.64
2012-5-22,56,51,48,53,48,45,93,90,86,29.92,29.84,12,3,12,0.23
2012-5-23,58,51,48,53,47,43,92,84,71,29.99,29.90,15,4,15,0.02
2012-5-24,59,52,46,50,45,42,88,78,60,29.96,29.78,10,2,10,0.00
2012-5-25,66,55,42,53,47,38,90,74,55,29.89,29.83,13,3,13,0.00
2012-5-26,72,59,46,58,50,42,90,73,51,29.95,29.84,14,3,14,0.00
2012-5-27,64,57,53,52,48,46,80,72,59,30.05,29.94,12,2,12,0.00
2012-5-28,66,56,50,52,47,41,87,71,53,30.11,30.02,14,3,14,0.00
2012-5-29,62,54,43,48,44,37,84,69,53,30.15,30.11,8,2,8,0.00
2012-5-30,67,58,50,51,47,44,80,68,52,30.23,30.12,7,1,7,0.01
2012-5-31,64,59,54,59,54,48,92,85,78,30.13,29.98,10,2,10,0.03
2012-6-1,67,61,54,64,57,51,94,88,79,29.98,29.87,15,3,15,0.39
2012-6-2,67,58,50,58,50,42,92,77,58,29.96,29.85,14,3,14,0.01
2012-6-3,64,55,49,49,45,42,81,69,52,29.98,29.87,10,2,10,0.00
2012-6-4,55,52,48,50,46,42,87,81,70,29.87,29.73,8,2,8,0.04
2012-6-5,61,52,47,55,48,42,93,84,64,30.19,29.80,18,3,18,0.64
2012-6-6,66,54,42,51,45,38,90,74,55,30.18,29.97,12,2,12,0.00
2012-6-7,59,52,49,56,48,43,93,86,77,29.97,29.78,18,2,18,0.80
2012-6-8,59,52,46,53,47,43,92,85,70,30.03,29.92,12,2,12,0.08
2012-6-9,64,54,47,54,48,44,91,79,64,30.21,30.02,15,3,15,0.00
2012-6-10,62,56,50,52,48,45,84,75,64,30.26,30.19,10,2,10,0.00
2012-6-11,72,62,50,56,50,45,84,66,47,30.19,30.05,8,2,8,0.00
2012-6-12,67,60,55,60,53,47,87,78,71,30.05,29.97,13,2,13,0.01
2012-6-13,62,56,53,52,49,47,85,77,64,30.16,30.01,8,3,12,0.00
2012-6-14,63,56,50,52,48,44,83,75,63,30.14,30.09,14,2,14,0.00
2012-6-15,71,61,47,55,49,42,88,66,49,30.18,30.12,7,2,7,0.00
2012-6-16,73,64,59,65,58,51,87,80,72,30.13,29.93,14,3,14,0.00
2012-6-17,71,61,53,59,54,47,88,77,59,29.94,29.86,20,5,20,0.00
2012-6-18,65,56,52,56,50,46,89,78,63,30.02,29.82,13,3,13,0.02
2012-6-19,65,56,51,55,49,46,87,77,63,30.15,30.01,8,2,9,0.00
2012-6-20,71,60,50,56,50,44,87,69,52,30.15,29.90,11,2,11,0.00
2012-6-21,72,62,51,55,51,44,82,67,52,29.93,29.75,8,2,8,0.00
2012-6-22,58,56,53,54,51,47,90,84,73,29.80,29.69,8,1,8,0.19
2012-6-23,57,54,50,56,52,47,93,91,88,29.94,29.69,12,2,12,0.25
2012-6-24,67,56,46,56,50,44,94,80,60,30.04,29.91,10,2,10,0.00
2012-6-25,66,58,49,55,50,44,88,76,66,30.02,29.92,12,2,12,0.00
2012-6-26,67,58,51,54,50,44,86,74,58,30.05,29.90,14,3,14,0.00
2012-6-27,70,59,46,55,47,41,89,65,46,30.05,29.89,6,2,6,0.00
2012-6-28,74,63,51,56,51,44,79,67,51,30.01,29.88,11,2,11,0.00
2012-6-29,70,63,59,63,57,53,89,83,73,30.06,29.99,11,2,11,0.03
2012-6-30,69,63,57,64,59,53,92,87,80,30.00,29.90,11,2,11,0.06
2012-7-1,67,60,56,56,53,51,87,79,66,30.05,29.95,12,1,12,0.00
2012-7-2,68,59,53,56,52,48,86,78,63,30.02,29.86,10,2,10,0.05
2012-7-3,67,58,51,56,51,45,92,78,65,30.12,29.82,22,4,22,0.30
2012-7-4,68,58,49,53,48,44,88,69,51,30.12,29.95,11,2,11,0.00
2012-7-5,72,62,49,54,48,42,82,62,48,30.02,29.96,8,2,8,0.00
2012-7-6,75,63,50,58,51,43,82,66,52,30.10,30.00,8,2,8,0.00
2012-7-7,75,64,52,58,52,46,82,67,52,30.14,30.01,10,2,10,0.00
2012-7-8,79,67,54,60,55,48,83,66,49,30.07,29.95,9,2,9,0.00
2012-7-9,74,64,57,63,56,51,84,75,64,30.11,30.01,9,2,9,0.00
2012-7-10,68,61,55,59,54,49,86,79,70,30.19,30.05,7,2,8,0.00
2012-7-11,78,66,55,63,57,50,87,73,60,30.07,29.95,6,2,6,0.00
2012-7-12,79,66,57,65,58,53,87,74,57,29.99,29.93,12,3,12,0.00
2012-7-13,73,64,58,63,57,53,85,79,66,30.04,29.93,8,2,8,0.00
2012-7-14,77,67,60,67,60,55,88,79,65,29.97,29.90,11,2,11,0.00
2012-7-15,65,61,57,57,55,53,87,82,74,29.93,29.87,13,3,13,0.00
2012-7-16,74,65,56,62,57,53,91,78,62,29.93,29.77,11,2,11,0.01
2012-7-17,72,65,59,64,59,54,86,81,74,29.91,29.77,12,2,12,0.00
2012-7-18,72,64,58,62,57,54,86,79,69,30.04,29.90,11,3,11,0.00
2012-7-19,74,67,58,61,58,54,86,73,61,30.05,29.89,10,2,10,0.00
2012-7-20,67,62,58,63,58,55,93,86,79,30.18,29.92,16,3,16,0.46
2012-7-21,75,65,58,64,57,52,91,76,57,30.18,30.05,12,2,12,0.00
2012-7-22,68,60,55,57,53,49,83,76,62,30.13,30.05,16,2,16,0.00
2012-7-23,70,60,52,58,53,47,86,78,66,30.20,30.13,12,2,12,0.00
2012-7-24,72,62,53,59,53,50,89,74,59,30.15,29.99,11,2,11,0.00
2012-7-25,76,66,55,62,56,49,83,71,59,30.01,29.89,10,2,10,0.00
2012-7-26,78,65,57,65,58,53,88,77,61,29.97,29.89,11,3,11,0.00
2012-7-27,67,61,57,59,55,53,87,82,74,30.10,29.94,8,2,8,0.00
2012-7-28,68,62,58,59,56,53,86,79,69,30.15,30.09,6,1,6,0.00
2012-7-29,74,64,57,62,56,52,86,77,61,30.16,30.08,8,1,8,0.00
2012-7-30,68,62,55,59,54,50,85,77,69,30.15,30.10,9,2,9,0.00
2012-7-31,71,62,56,59,54,51,84,75,63,30.16,30.12,8,2,8,0.00
2012-8-1,73,64,52,60,55,47,85,72,61,30.20,30.13,9,2,9,0.00
2012-8-2,71,62,53,60,54,48,85,75,64,30.18,30.09,7,2,7,0.00
2012-8-3,75,65,55,62,56,51,89,74,61,30.12,29.96,12,2,12,0.00
2012-8-4,82,72,61,64,59,54,79,65,52,29.97,29.82,12,3,12,0.00
2012-8-5,88,76,62,67,61,55,79,61,48,29.98,29.85,10,2,10,0.00
2012-8-6,80,68,61,66,59,54,81,73,59,30.09,29.98,13,2,13,0.00
2012-8-7,70,64,59,62,58,53,85,81,76,30.09,30.02,9,2,9,0.00
2012-8-8,72,65,59,60,56,53,83,73,63,30.21,30.06,13,2,13,0.00
2012-8-9,72,65,57,60,56,52,86,72,61,30.20,30.08,10,2,10,0.00
2012-8-10,76,66,54,61,55,49,85,70,54,30.12,30.03,8,2,8,0.00
2012-8-11,78,67,54,62,56,49,86,69,51,30.08,29.96,10,2,10,0.00
2012-8-12,79,69,57,62,57,51,81,66,54,29.99,29.91,12,2,12,0.00
2012-8-13,80,69,57,62,56,51,82,66,52,30.02,29.94,8,2,8,0.00
2012-8-14,80,68,56,63,57,49,81,69,54,29.99,29.87,12,2,12,0.00
2012-8-15,78,70,59,63,57,52,87,66,49,29.94,29.84,14,3,14,0.00
2012-8-16,87,75,63,62,56,51,66,53,39,29.94,29.86,9,2,9,0.00
2012-8-17,84,73,60,65,59,53,80,63,47,29.96,29.88,6,2,6,0.00
2012-8-18,68,64,61,61,58,55,85,80,72,29.97,29.86,13,2,13,0.00
2012-8-19,71,64,58,60,56,52,85,76,64,30.02,29.93,8,2,8,0.00
2012-8-20,75,65,56,61,55,51,86,72,58,30.04,29.92,6,2,6,0.00
2012-8-21,74,63,55,61,54,49,85,73,55,30.02,29.95,10,2,10,0.00
2012-8-22,73,62,55,60,53,50,85,73,59,30.10,30.02,7,1,7,0.00
2012-8-23,70,60,52,57,51,45,81,72,58,30.10,30.02,11,2,11,0.00
2012-8-24,70,58,46,55,48,42,87,69,50,30.19,29.99,10,2,10,0.00
2012-8-25,72,62,53,56,51,47,85,67,52,29.99,29.72,11,3,11,0.00
2012-8-26,73,62,54,58,52,48,83,70,59,29.94,29.73,13,3,13,0.00
2012-8-27,77,66,53,60,53,47,87,64,47,30.04,29.94,13,2,13,0.00
2012-8-28,76,64,55,58,51,47,80,64,45,30.06,29.99,16,3,16,0.00
2012-8-29,76,64,56,59,53,49,83,69,53,30.12,30.04,10,2,10,0.00
2012-8-30,73,62,55,59,53,48,86,72,53,30.04,29.87,10,2,10,0.00
2012-8-31,71,60,49,56,50,44,84,69,57,29.98,29.90,8,2,8,0.00
2012-9-1,72,59,49,57,50,44,86,71,52,30.12,29.97,8,2,8,0.00
2012-9-2,67,57,48,55,48,43,86,73,59,30.18,30.11,6,1,6,0.00
2012-9-3,68,60,53,57,52,47,86,75,65,30.17,30.10,10,2,10,0.00
2012-9-4,70,62,51,58,52,46,85,72,62,30.19,30.08,10,2,10,0.00
2012-9-5,75,64,51,59,53,46,86,70,53,30.09,29.91,10,2,10,0.00
2012-9-6,75,65,57,59,53,50,84,65,50,30.03,29.93,11,3,11,0.00
2012-9-7,83,69,57,57,52,47,71,56,39,30.12,30.01,8,2,8,0.00
2012-9-8,80,66,55,60,54,47,78,65,50,30.02,29.90,14,3,14,0.00
2012-9-9,66,61,58,55,52,50,84,74,66,30.01,29.94,13,3,13,0.00
2012-9-10,66,59,53,54,50,45,87,74,55,30.20,29.94,12,2,12,0.02
2012-9-11,67,56,46,52,45,39,84,67,51,30.30,30.19,10,2,10,0.00
2012-9-12,66,58,50,54,48,42,82,70,57,30.33,30.20,12,3,12,0.00
2012-9-13,72,62,53,55,49,43,74,62,50,30.20,30.02,10,3,10,0.00
2012-9-14,73,62,50,54,48,43,79,62,45,30.07,29.99,8,2,8,0.00
2012-9-15,71,60,52,57,50,44,84,71,55,30.15,30.04,6,2,6,0.00
2012-9-16,69,59,48,56,50,43,86,72,58,30.20,30.10,11,2,11,0.00
2012-9-17,73,62,51,58,51,46,86,68,51,30.10,29.98,11,2,11,0.00
2012-9-18,77,64,51,59,51,45,83,65,46,30.07,29.99,7,2,8,0.00
2012-9-19,67,59,54,57,52,48,85,78,67,30.14,30.04,9,2,9,0.00
2012-9-20,66,57,52,58,52,47,89,82,73,30.09,30.01,10,2,10,0.00
2012-9-21,62,58,56,56,53,51,89,84,77,30.12,30.09,8,1,8,0.00
2012-9-22,64,58,54,56,52,48,89,81,72,30.14,30.09,5,1,5,0.00
2012-9-23,66,58,49,55,49,44,87,75,61,30.15,30.09,9,1,9,0.00
2012-9-24,68,58,49,58,51,44,88,77,65,30.12,30.06,9,1,9,0.00
2012-9-25,65,58,52,57,52,47,86,80,71,30.13,30.07,5,1,5,0.00
2012-9-26,64,55,49,55,49,45,90,80,70,30.11,30.03,6,1,6,0.00
2012-9-27,68,58,48,56,50,44,89,76,63,30.05,29.92,10,2,10,0.00
2012-9-28,71,60,54,59,52,47,87,75,61,30.01,29.90,6,2,6,0.00
2012-9-29,64,58,54,54,50,46,84,75,61,30.27,30.01,9,2,9,0.00
2012-9-30,66,56,48,54,47,42,86,71,53,30.38,30.27,10,2,10,0.00
2012-10-1,71,60,48,57,50,42,83,71,54,30.33,30.07,10,2,10,0.00
2012-10-2,60,55,50,50,45,41,82,70,50,30.25,30.12,9,2,9,0.00
2012-10-3,63,55,50,47,42,36,78,62,48,30.35,30.24,15,3,15,0.00
2012-10-4,61,54,50,48,43,38,76,65,54,30.27,30.21,13,3,13,0.00
2012-10-5,66,56,49,49,42,38,71,59,46,30.26,30.18,9,2,9,0.00
2012-10-6,69,57,48,48,40,36,69,54,40,30.21,30.08,9,2,9,0.00
2012-10-7,69,58,50,50,43,37,72,59,44,30.08,29.90,8,2,8,0.00
2012-10-8,71,56,43,52,44,37,82,66,47,30.02,29.90,10,2,10,0.00
2012-10-9,58,52,47,50,46,42,83,80,73,30.11,30.01,6,1,6,0.00
2012-10-10,52,50,44,49,46,40,89,88,83,30.02,29.96,3,1,3,0.01
2012-10-11,54,50,45,49,46,41,88,85,80,29.97,29.78,7,1,7,0.00
2012-10-12,56,52,47,52,49,44,91,87,83,29.97,29.80,14,3,14,0.07
2012-10-13,60,56,53,58,54,50,93,92,90,30.12,29.97,13,4,13,0.34
2012-10-14,62,59,57,58,56,54,94,92,87,30.10,29.84,12,2,12,1.11
2012-10-15,60,57,52,59,55,50,95,93,89,29.93,29.52,14,2,14,0.52
2012-10-16,60,53,45,55,48,42,92,83,69,30.24,29.55,17,4,17,0.00
2012-10-17,56,50,44,50,45,41,91,84,72,30.31,30.17,5,1,5,0.00
2012-10-18,61,51,42,53,46,40,92,84,70,30.18,29.78,13,2,13,0.81
2012-10-19,58,54,49,55,51,46,94,90,82,29.79,29.72,17,4,17,0.15
2012-10-20,53,46,42,46,42,38,91,86,75,29.85,29.76,17,4,17,0.02
2012-10-21,51,45,40,47,41,37,92,87,80,29.84,29.73,10,2,10,0.14
2012-10-22,45,43,41,43,40,38,92,91,89,29.73,29.53,6,1,6,0.27
2012-10-23,51,45,42,46,42,40,93,89,81,29.83,29.60,15,2,15,0.05
2012-10-24,51,46,44,48,44,41,94,91,86,30.12,29.80,9,1,9,0.33
2012-10-25,51,46,41,48,43,39,94,92,89,30.37,30.12,5,1,5,0.00
2012-10-26,50,46,44,48,45,42,95,93,92,30.27,30.01,10,1,11,0.15
2012-10-27,56,51,49,55,49,47,95,94,93,30.02,29.74,13,2,13,0.80
2012-10-28,57,54,52,55,52,49,95,94,92,29.92,29.74,16,2,16,0.19
2012-10-29,59,55,51,57,54,49,95,94,90,30.00,29.71,17,3,17,0.43
2012-10-30,58,56,53,57,54,51,95,95,94,29.94,29.72,7,1,7,1.48
2012-10-31,58,56,52,56,54,50,96,95,94,29.73,29.60,9,1,9,1.05
2012-11-1,56,53,52,55,52,50,96,95,94,29.99,29.68,7,1,9,0.60
2012-11-2,57,53,50,55,52,48,96,95,94,30.01,29.94,5,1,5,0.23
2012-11-3,58,54,52,56,53,50,96,95,95,30.15,29.94,12,2,12,0.11
2012-11-4,61,58,54,60,56,53,96,96,95,30.28,30.14,13,2,13,0.34
2012-11-5,58,52,46,56,50,44,96,92,86,30.37,30.13,10,2,10,0.05
2012-11-6,54,49,44,53,47,42,95,93,91,30.13,29.92,18,2,18,0.01
2012-11-7,52,46,40,47,43,38,94,89,78,30.10,29.91,14,2,14,0.00
2012-11-8,49,42,36,45,38,33,94,87,79,29.91,29.78,12,2,12,0.01
2012-11-9,46,37,33,43,34,29,93,88,83,29.92,29.81,6,2,6,0.00
2012-11-10,44,35,31,39,32,28,92,86,76,30.19,29.92,5,2,5,0.01
2012-11-11,46,40,33,42,37,29,93,90,87,30.20,30.04,4,1,4,0.77
2012-11-12,52,48,44,50,46,42,95,94,92,30.18,30.04,9,2,9,0.18
2012-11-13,51,49,47,49,48,46,95,95,94,30.18,30.10,9,1,9,0.32
2012-11-14,50,47,43,48,46,41,96,95,93,30.29,30.14,6,1,6,0.01
2012-11-15,46,43,41,44,42,39,95,94,93,30.24,29.91,9,2,9,0.00
2012-11-16,45,43,40,44,42,38,95,95,93,29.91,29.66,5,1,5,0.25
2012-11-17,49,45,42,48,44,40,96,95,93,29.68,29.45,15,3,15,0.33
2012-11-18,47,45,42,45,43,41,95,94,93,29.73,29.49,14,2,14,0.72
2012-11-19,53,49,46,52,48,45,96,95,94,29.66,29.32,20,3,20,2.97
2012-11-20,49,46,42,48,44,41,96,95,92,29.67,29.50,19,2,19,0.41
2012-11-21,45,42,39,43,41,38,95,95,94,30.25,29.48,17,4,17,0.88
2012-11-22,45,41,36,43,39,34,96,95,93,30.33,30.17,5,1,5,0.00
2012-11-23,49,46,42,48,44,40,96,95,95,30.20,29.98,11,2,11,1.19
2012-11-24,48,43,38,46,42,36,96,95,94,30.24,30.10,6,1,6,0.02
2012-11-25,44,40,37,43,39,36,96,94,91,30.32,30.17,13,2,13,0.00
2012-11-26,45,40,36,42,38,34,94,91,87,30.19,30.01,10,2,10,0.00
2012-11-27,45,40,34,43,38,32,95,93,91,30.05,29.85,5,1,5,0.00
2012-11-28,44,42,37,43,40,35,95,94,92,29.87,29.57,8,1,8,0.14
2012-11-29,51,47,42,49,45,41,96,94,91,29.68,29.42,10,2,10,0.12
2012-11-30,54,49,46,51,47,44,96,94,85,29.43,29.33,14,2,14,1.24
2012-12-1,51,48,45,47,45,43,96,91,84,29.59,29.24,20,4,20,0.42
2012-12-2,47,45,44,45,44,42,95,94,90,29.77,29.15,17,4,17,0.84
2012-12-3,48,46,44,47,45,43,96,95,94,29.96,29.61,15,2,15,0.61
2012-12-4,50,47,44,49,46,42,96,94,91,29.82,29.49,19,4,19,0.66
2012-12-5,46,42,39,43,40,38,94,92,89,30.17,29.82,15,3,15,0.08
2012-12-6,44,42,41,43,41,40,95,95,94,30.16,30.00,16,3,16,0.14
2012-12-7,45,42,37,43,40,35,95,93,90,30.12,29.92,16,3,16,0.22
2012-12-8,43,39,36,41,37,34,95,93,91,30.32,30.11,6,1,6,0.00
2012-12-9,43,41,38,42,40,36,96,95,94,30.34,30.23,7,1,7,0.12
2012-12-10,44,43,42,43,42,41,96,96,95,30.39,30.06,7,1,7,0.02
2012-12-11,45,43,42,43,41,41,96,95,93,30.06,29.52,12,3,12,0.10
2012-12-12,44,42,41,42,41,40,95,95,95,29.99,29.58,8,1,8,0.07
2012-12-13,43,41,40,42,40,39,96,94,91,30.01,29.77,8,2,8,0.18
2012-12-14,43,40,35,41,38,33,96,94,90,29.91,29.74,8,2,8,0.20
2012-12-15,39,37,33,38,36,31,95,94,91,29.89,29.51,16,3,16,0.25
2012-12-16,44,39,36,43,38,35,96,95,94,29.72,28.93,14,3,14,1.12
2012-12-17,45,40,35,44,37,33,96,91,84,29.86,28.89,23,7,23,0.11
2012-12-18,38,36,34,36,34,32,95,94,92,29.95,29.83,13,4,13,0.15
2012-12-19,43,39,35,40,37,33,95,94,91,29.92,29.51,19,3,19,0.70
2012-12-20,44,40,33,43,38,31,96,94,93,29.79,29.47,17,3,17,0.62
2012-12-21,43,37,32,42,36,31,96,95,93,29.79,29.63,6,1,6,0.04
2012-12-22,45,41,39,43,40,38,96,94,89,29.71,29.47,15,3,15,0.10
2012-12-23,43,41,39,41,39,37,95,93,91,29.79,29.59,10,2,10,0.26
2012-12-24,42,40,38,41,38,37,96,95,94,30.13,29.79,7,1,7,0.04
2012-12-25,40,38,36,38,37,34,96,95,95,30.02,29.63,5,1,5,0.52
2012-12-26,44,41,38,43,40,37,96,95,95,29.88,29.66,14,2,14,0.17
2012-12-27,45,41,38,43,40,36,96,95,94,30.12,29.88,8,2,9,0.02
2012-12-28,44,40,37,42,38,36,96,94,93,30.12,30.07,4,1,4,0.00
2012-12-29,42,40,37,40,38,36,96,95,93,30.19,30.10,5,1,5,0.06
2012-12-30,40,37,33,39,36,31,96,94,93,30.28,30.18,4,1,4,0.00
2012-12-31,39,36,34,37,35,32,96,95,94,30.41,30.21,6,1,6,0.00
2013-1-1,40,36,32,37,34,30,95,93,89,30.45,30.30,9,2,9,0.01